Madison, WI

10:24 AM CDT on October 19, 2019 (GMT -0500)
Dane County Regional-Truax

Weather History for KMSN - September, 2019

Change the Weather History Date:

Wednesday, September 18, 2019

  Actual Average Record
Temperature  
Mean Temperature 72 °F 60 °F  
Max Temperature 82 °F 71 °F 92 °F (1955)
Min Temperature 62 °F 49 °F 33 °F (1959)
Degree Days  
Heating Degree Days 0 6  
Month to date heating degree days 21 69  
Since 1 July heating degree days 34 106  
Cooling Degree Days 7 1  
Month to date cooling degree days 51 42  
Year to date cooling degree days 618 555  
Growing Degree Days 22 (Base 50)    
Moisture  
Dew Point 63 °F    
Average Humidity 76    
Maximum Humidity 93    
Minimum Humidity 58    
Precipitation  
Precipitation 0.00 in 0.10 in 3.40 in (1874)
Month to date precipitation 3.57 1.95  
Year to date precipitation 33.16 26.77  
Snow  
Snow 0.00 in 0.00 in 0.00 in (2018)
Month to date snowfall 0.0 0.0  
Since 1 July snowfall 0.0 0.0  
Since 1 September snowfall 0.0 0.0  
Snow Depth 0.00 in    
Sea Level Pressure  
Sea Level Pressure 30.05 in    
Wind  
Wind Speed 10 mph (South)    
Max Wind Speed 21 mph    
Max Gust Speed 29 mph    
Visibility 9 miles    
Events      
T = Trace of Precipitation, MM = Missing Value Source: NWS Daily Summary

Daily Weather History Graph

Daily Weather History Graph

Search for Another Location

Airport or City:

Astronomy

Sep. 18, 2019 Rise Set
Actual Time 6:40 AM CDT 7:02 PM CDT
Civil Twilight 6:11 AM CDT 7:30 PM CDT
Nautical Twilight 5:37 AM CDT 8:04 PM CDT
Astronomical Twilight 5:03 AM CDT 8:38 PM CDT
Moon 9:29 PM CDT (9/18) 10:49 AM CDT (9/18)
Length of Visible Light 13h 19m
Length of Day
12h 22m
Waning Gibbous, 82% of the Moon is Illuminated
Sep 18
Waning Gibbous
Sep 21
Last Quarter
Sep 28
New
Oct 5
First Quarter
Oct 13
Full

Hourly Weather History & Observations

Time (CDT) Temp. Heat Index Dew Point Humidity Pressure Visibility Wind Dir Wind Speed Gust Speed Precip Events Conditions
12:53 AM 66.0 °F - 59.0 °F 78% 30.09 in 10.0 mi South 10.4 mph - N/A   Clear
1:53 AM 64.9 °F - 57.9 °F 78% 30.08 in 10.0 mi South 9.2 mph - N/A   Clear
2:53 AM 64.0 °F - 59.0 °F 84% 30.08 in 10.0 mi SSE 9.2 mph - N/A   Clear
3:53 AM 62.1 °F - 59.0 °F 90% 30.07 in 10.0 mi SSE 5.8 mph - N/A   Clear
4:53 AM 64.0 °F - 60.1 °F 87% 30.06 in 9.0 mi South 9.2 mph - N/A   Clear
5:53 AM 63.0 °F - 60.1 °F 90% 30.06 in 8.0 mi South 9.2 mph - N/A   Scattered Clouds
6:53 AM 63.0 °F - 59.0 °F 87% 30.06 in 6.0 mi South 8.1 mph - N/A   Scattered Clouds
7:53 AM 64.0 °F - 60.1 °F 87% 30.09 in 7.0 mi South 8.1 mph - N/A   Mostly Cloudy
8:53 AM 64.0 °F - 60.1 °F 87% 30.11 in 7.0 mi South 5.8 mph - N/A   Scattered Clouds
9:53 AM 69.1 °F - 61.0 °F 75% 30.11 in 10.0 mi South 9.2 mph - N/A   Partly Cloudy
10:53 AM 72.0 °F - 63.0 °F 73% 30.11 in 10.0 mi South 5.8 mph - N/A   Scattered Clouds
11:53 AM 75.9 °F - 64.0 °F 67% 30.10 in 10.0 mi South 9.2 mph - N/A   Scattered Clouds
12:53 PM 77.0 °F - 64.9 °F 66% 30.08 in 10.0 mi SSW 9.2 mph - N/A   Mostly Cloudy
1:53 PM 80.1 °F 82.1 °F 66.0 °F 62% 30.05 in 10.0 mi SSE 11.5 mph - N/A   Scattered Clouds
2:53 PM 81.0 °F 83.0 °F 66.0 °F 60% 30.02 in 10.0 mi South 13.8 mph - N/A   Scattered Clouds
3:53 PM 81.0 °F 82.7 °F 64.9 °F 58% 30.01 in 10.0 mi South 17.3 mph - N/A   Mostly Cloudy
4:53 PM 81.0 °F 82.7 °F 64.9 °F 58% 29.98 in 10.0 mi South 20.7 mph 26.5 mph N/A   Mostly Cloudy
5:53 PM 79.0 °F - 66.0 °F 64% 29.99 in 10.0 mi South 15.0 mph 20.7 mph N/A   Mostly Cloudy
6:53 PM 77.0 °F - 66.0 °F 69% 29.99 in 10.0 mi South 10.4 mph - N/A   Mostly Cloudy
7:53 PM 75.0 °F - 64.9 °F 71% 30.01 in 10.0 mi South 10.4 mph - N/A   Mostly Cloudy
8:53 PM 73.9 °F - 64.9 °F 73% 30.04 in 10.0 mi South 4.6 mph - N/A   Mostly Cloudy
9:53 PM 72.0 °F - 64.9 °F 78% 30.04 in 10.0 mi South 5.8 mph - N/A   Mostly Cloudy
10:53 PM 72.0 °F - 66.0 °F 81% 30.04 in 10.0 mi South 9.2 mph - N/A   Mostly Cloudy
11:53 PM 71.1 °F - 64.9 °F 81% 30.04 in 10.0 mi South 9.2 mph - N/A   Clear